DW9686 Weather Reports


time (UTC)temp
C
wind
direction
speed
KPH
gust
KPH
rain 1hr
cm
rain 24hr
cm
rain mn
cm
humidity
%
barometer
mb
20260510090044 12 205 3.2 6.4 0.00 0.00 0.00 71 1015.1
20260510084531 12 205 4.8 6.4 0.00 0.00 0.00 73 1015.3
20260510083033 11 205 1.6 4.8 0.00 0.00 0.00 74 1015.3
20260510081548 12 205 3.2 8.0 0.00 0.00 0.00 73 1015.5
20260510080035 13 205 4.8 9.7 0.00 0.00 0.00 68 1015.5
20260510074535 13 205 4.8 8.0 0.00 0.00 0.00 65 1015.3
20260510073034 13 205 4.8 8.0 0.00 0.00 0.00 64 1015.4
20260510071540 13 201 4.8 8.0 0.00 0.00 0.00 64 1015.4
20260510070039 13 201 4.8 8.0 0.00 0.00 0.00 66 1015.5
20260510064534 14 201 4.8 8.0 0.00 0.00 0.00 64 1015.4
20260510063035 15 201 4.8 9.7 0.00 0.00 0.00 62 1015.6
20260510061534 15 196 4.8 8.0 0.00 0.00 0.00 62 1015.6
20260510060033 15 194 4.8 6.4 0.00 0.00 0.00 63 1015.6
20260510054535 15 194 3.2 6.4 0.00 0.00 0.00 62 1015.7
20260510053035 16 194 3.2 6.4 0.00 0.00 0.00 62 1015.8
20260510051530 16 194 1.6 4.8 0.00 0.00 0.00 59 1015.8
20260510050032 17 194 3.2 4.8 0.00 0.00 0.00 59 1015.9
20260510044536 18 194 1.6 4.8 0.00 0.00 0.00 54 1015.9
20260510043034 18 194 1.6 4.8 0.00 0.00 0.00 51 1016.0
20260510041533 18 194 1.6 3.2 0.00 0.00 0.00 51 1016.0
20260510040032 19 194 1.6 4.8 0.00 0.00 0.00 50 1016.0
20260510034556 19 0 0.0 0.0 0.00 0.00 0.00 51 1016.0
20260510033032 20 0 0.0 0.0 0.00 0.00 0.00 51 1015.9
20260510031534 20 194 0.0 4.8 0.00 0.00 0.00 52 1015.9
20260510030034 21 0 0.0 0.0 0.00 0.00 0.00 45 1015.8
20260510024537 22 0 0.0 0.0 0.00 0.00 0.00 46 1015.9
20260510023034 22 0 0.0 0.0 0.00 0.00 0.00 43 1015.9
20260510021533 22 0 0.0 3.2 0.00 0.00 0.00 44 1016.2
20260510020036 23 194 1.6 4.8 0.00 0.00 0.00 45 1016.2
20260510014541 23 194 0.0 3.2 0.00 0.00 0.00 42 1016.3
20260510013035 23 0 0.0 0.0 0.00 0.00 0.00 42 1016.3
20260510011540 23 194 3.2 6.4 0.00 0.00 0.00 39 1016.5
20260510010034 23 0 0.0 0.0 0.00 0.00 0.00 37 1016.7
20260510004531 23 0 0.0 4.8 0.00 0.00 0.00 36 1016.9
20260510003031 23 195 0.0 6.4 0.00 0.00 0.00 36 1017.0
20260510001532 23 198 1.6 6.4 0.00 0.00 0.00 36 1017.0
20260510000054 23 198 0.0 8.0 0.00 0.00 0.00 35 1017.2
20260509234546 23 198 3.2 8.0 0.00 0.00 0.00 37 1017.2
20260509233032 23 200 0.0 9.7 0.00 0.00 0.00 37 1017.5
20260509231532 23 180 4.8 8.0 0.00 0.00 0.00 36 1017.6
20260509230035 23 207 1.6 9.7 0.00 0.00 0.00 36 1017.8
20260509224532 23 208 3.2 8.0 0.00 0.00 0.00 39 1017.9
20260509223032 23 208 3.2 8.0 0.00 0.00 0.00 42 1018.3
20260509221532 23 208 0.0 8.0 0.00 0.00 0.00 39 1018.4
20260509220032 22 208 3.2 8.0 0.00 0.00 0.00 41 1018.5
20260509214532 22 208 0.0 6.4 0.00 0.00 0.00 43 1018.7
20260509213038 22 208 3.2 6.4 0.00 0.00 0.00 46 1018.9
20260509211532 22 208 1.6 8.0 0.00 0.00 0.00 47 1019.0
20260509210041 21 208 3.2 8.0 0.00 0.00 0.00 45 1019.2
20260509204540 21 208 4.8 12.9 0.00 0.00 0.00 45 1019.2
20260509203031 21 172 3.2 9.7 0.00 0.00 0.00 46 1019.4
20260509201539 21 173 4.8 11.3 0.00 0.00 0.00 46 1019.6
20260509200041 21 167 4.8 9.7 0.00 0.00 0.00 51 1019.7
20260509194537 21 167 1.6 16.1 0.00 0.00 0.00 46 1019.9
20260509193034 20 163 3.2 11.3 0.00 0.00 0.00 47 1020.1
20260509191534 20 165 3.2 16.1 0.00 0.00 0.00 47 1020.1
20260509190033 20 155 1.6 14.5 0.00 0.00 0.00 46 1020.4
20260509184543 20 158 4.8 11.3 0.00 0.00 0.00 49 1020.5
20260509183035 19 160 6.4 11.3 0.00 0.00 0.00 51 1020.6
20260509181533 19 159 8.0 12.9 0.00 0.00 0.00 49 1020.6
20260509180032 18 153 1.6 11.3 0.00 0.00 0.00 52 1020.8
20260509174536 18 148 4.8 9.7 0.00 0.00 0.00 50 1020.9
20260509173032 17 148 3.2 9.7 0.00 0.00 0.00 50 1020.9
20260509171536 17 123 3.2 6.4 0.00 0.00 0.00 52 1020.9
20260509170036 17 0 0.0 4.8 0.00 0.00 0.00 52 1020.9
20260509164532 17 0 0.0 6.4 0.00 0.00 0.00 55 1021.2
20260509163034 16 0 1.6 4.8 0.00 0.00 0.00 57 1021.3
20260509161534 15 123 1.6 6.4 0.00 0.00 0.00 63 1021.3
20260509160037 15 0 0.0 6.4 0.00 0.00 0.00 69 1021.3
20260509154532 14 123 3.2 11.3 0.00 0.00 0.00 73 1021.3
20260509153042 13 111 3.2 6.4 0.00 0.00 0.00 75 1021.4
20260509151531 13 109 1.6 4.8 0.00 0.00 0.00 77 1021.2
20260509150040 12 110 3.2 6.4 0.00 0.00 0.00 79 1021.3
20260509144548 11 109 3.2 9.7 0.00 0.00 0.00 79 1021.1
20260509143034 11 109 1.6 9.7 0.00 0.00 0.00 80 1021.0
20260509141534 10 101 3.2 4.8 0.00 0.00 0.00 81 1020.9
20260509140033 10 101 0.0 9.7 0.00 0.00 0.00 81 1020.8
20260509134550 10 90 3.2 6.4 0.00 0.00 0.00 81 1020.6
20260509133037 9 0 0.0 6.4 0.00 0.00 0.00 82 1020.5
20260509131537 8 84 3.2 11.3 0.00 0.00 0.00 81 1020.2
20260509130046 8 0 0.0 0.0 0.00 0.00 0.00 81 1020.1
20260509124535 8 0 1.6 6.4 0.00 0.00 0.00 83 1020.0
20260509123033 7 0 0.0 0.0 0.00 0.00 0.00 81 1020.1
20260509121542 8 0 0.0 0.0 0.00 0.00 0.00 80 1019.9
20260509120033 8 0 0.0 0.0 0.00 0.00 0.00 78 1019.9
20260509114537 9 0 0.0 4.8 0.00 0.00 0.00 78 1019.9
20260509113036 9 272 4.8 9.7 0.00 0.00 0.00 77 1019.9
20260509111531 10 272 4.8 9.7 0.00 0.00 0.00 73 1019.8
20260509110034 10 272 4.8 9.7 0.00 0.00 0.00 71 1019.8
20260509104540 10 272 3.2 6.4 0.00 0.00 0.00 70 1019.8
20260509103032 11 272 6.4 11.3 0.00 0.00 0.00 67 1019.6
20260509101546 11 273 4.8 11.3 0.00 0.00 0.00 63 1019.5
20260509100035 12 273 11.3 17.7 0.00 0.00 0.00 62 1019.3
20260509094538 11 267 9.7 16.1 0.00 0.00 0.00 65 1019.4
20260509093033 11 267 6.4 19.3 0.00 0.00 0.00 64 1019.4
20260509091540 12 281 11.3 17.7 0.00 0.00 0.00 61 1019.2